Date,TemperatureHighF,TemperatureAvgF,TemperatureLowF,DewpointHighF,DewpointAvgF,DewpointLowF,HumidityHigh,HumidityAvg,HumidityLow,PressureMaxIn,PressureMinIn,WindSpeedMaxMPH,WindSpeedAvgMPH,GustSpeedMaxMPH,PrecipitationSumIn
2013-2-1,45.4,43.9,42.6,45.0,43.6,42.0,100,98,95,30.43,30.33,5,1,6,0.00
2013-2-2,42.9,41.6,40.7,43.0,40.9,40.0,100,96,92,30.41,30.24,6,2,9,0.00
2013-2-3,45.8,42.5,40.4,44.0,41.7,40.0,99,97,91,30.29,30.17,5,0,7,0.00
2013-2-4,45.5,43.4,41.8,44.0,42.7,41.0,100,97,90,30.17,29.83,3,0,9,0.00
2013-2-5,48.2,44.4,42.0,45.0,42.8,41.0,99,94,87,29.87,29.75,3,1,12,0.00
2013-2-6,47.9,44.0,41.2,43.0,41.6,40.0,99,91,74,29.98,29.70,6,1,19,0.00
2013-2-7,47.6,42.8,38.5,41.0,38.9,37.0,96,86,69,30.19,29.70,8,1,17,0.00
2013-2-8,44.0,40.8,37.3,41.0,38.9,36.0,98,92,86,30.30,30.19,3,0,5,0.00
2013-2-9,43.8,41.6,39.7,42.0,39.9,37.0,96,93,90,30.34,30.25,2,0,3,0.00
2013-2-10,44.3,40.6,36.3,40.0,38.7,36.0,99,93,85,30.38,30.32,3,0,5,0.00
2013-2-11,43.8,42.3,41.1,43.0,41.4,39.0,99,96,93,30.33,30.30,2,0,6,0.00
2013-2-12,48.0,44.8,42.5,46.0,43.8,42.0,100,96,81,30.38,30.23,7,1,13,0.00
2013-2-13,49.9,45.2,42.4,44.0,41.0,39.0,92,85,75,30.47,30.26,6,1,11,0.00
2013-2-14,44.3,43.1,41.7,44.0,42.5,40.0,99,97,89,30.57,30.46,4,0,6,0.00
2013-2-15,45.2,43.6,42.8,44.0,42.6,41.0,99,96,88,30.57,30.17,6,2,9,0.00
2013-2-16,47.8,44.3,40.7,44.0,41.2,39.0,99,89,78,30.17,30.09,6,1,13,0.00
2013-2-17,45.5,41.1,37.9,41.0,39.2,37.0,97,93,79,30.22,30.10,5,0,6,0.00
2013-2-18,44.0,40.9,37.3,40.0,38.2,37.0,98,90,82,30.09,29.74,4,1,9,0.00
2013-2-19,44.4,41.0,38.9,40.0,37.3,33.0,97,87,78,29.99,29.73,6,1,11,0.00
2013-2-20,42.7,39.9,37.0,41.0,38.8,36.0,99,96,90,30.01,29.97,3,0,6,0.00
2013-2-21,45.3,42.1,39.5,41.0,40.0,38.0,97,92,85,30.02,29.96,5,1,9,0.00
2013-2-22,45.4,41.6,39.5,45.0,39.9,36.0,99,93,76,30.01,29.62,7,2,22,0.00
2013-2-23,48.6,42.1,37.8,42.0,38.0,36.0,95,85,69,30.32,29.83,4,0,9,0.00
2013-2-24,45.1,43.2,40.3,40.0,38.9,36.0,93,85,80,30.34,29.83,13,2,24,0.00
2013-2-25,49.8,43.5,40.2,40.0,37.7,35.0,97,80,60,30.26,29.80,16,3,22,0.00
2013-2-26,44.8,42.2,39.2,40.0,37.7,36.0,95,84,72,30.31,30.12,6,1,16,0.00
2013-2-27,46.8,41.8,38.8,42.0,39.5,38.0,99,92,77,30.30,30.16,3,0,6,0.00
2013-2-28,48.3,43.6,40.1,48.0,42.9,38.0,99,97,92,30.27,30.17,4,0,9,0.00